STARLINK-5500, 55634

Orbit data source: Space-Track

STARLINK-5500, 55634 is a payload satellite owned by SpaceX/Seattle (US) in LEO that was launched on Fri, 17 Feb 2023 UTC via an FALCON 9 launch vehicle from the Air Force Western Test Range (AFWTR). Payload-class satellites include a variety of spacecraft equipped with specific instruments for various scientific and technological missions. These include communications satellites like Starlink; space stations such as the ISS; scientific satellites like the Hubble; Earth observation satellites from companies like Planet Labs, Umbra, and HawkEye 360; GPS; miniature CubeSats for education and research; and military/defense satellites.

Loading next visibility...
Identifier
55634, 2023-021G
Orbit
LEO
Country
Flag of USUS
Related business
Manufacturer
SpaceX/Seattle
Mission
Operational Commercial Communications
Bus & Motor
STARLINK, Unknown motor
Mass
305 kg wet, ~290 kg dry
Launch date (UTC)
2023-02-17 (3 years ago)
Launch vehicle
FALCON 9
Launch site
Air Force Western Test Range (AFWTR)
Object type
Payload
Rocket body
Debris
Shape & HBR
Box + 1 Pan, 10.1 m
Radar Cross Section
13.562 m², Large (>1 m²)

Expand to show TLE details & history
Last TLE update: 2 days ago

TLE from 2 days ago
0 STARLINK-5500
1 55634U 23021G   26171.40451880  .00000431  00000-0  43944-4 0  9994
2 55634  69.9996 305.4832 0003046 272.0601  88.0209 14.98333888183676
Epoch: 2026-06-20T09:42Z
TLE epoch observation values (Epoch: 2026-06-20T09:42:30.424Z)
Latitude
-0.00004°
Longitude
-108.7632°
Altitude
574.395 km
Speed
7.574 km/s
True Right ascension
20h 21m 55s
True Declination
0° 00' 00"
Sunlit
Object was in full shadow at epoch
Visualization orbit readout
Latitude
Unknown
Longitude
Unknown
Altitude
Unknown
Speed
Unknown
Apparent Right ascension
Unknown
Apparent Declination
Unknown
Sunlit
N/A
Visualization observer readout
Local Sidereal Time
21:42:57
Azimuth
Unknown
Elevation
Unknown
Doppler factor
Unknown
Orbital elements
Apogee altitude
572.109 km
Perigee altitude
567.876 km
Semi-major axis
6,948.129 km
Eccentricity
0.0003
Inclination
69.9996°
RAAN
305.4832°
Arg. of periapsis
272.0601°
True anomaly
88.05578°
Mean anomaly
88.0209°
Eccentric anomaly
88.03834°
Mean motion
3.7475 °/min
Orbital period
96.06 mins
BSTAR
0.000043944
Loading maneuver chart data...
Computing Atmospheric mass density...

Documentation

Showing up to 5 results
|